Flag for Germany

Past Weather in Görlitz, Saxony, Germany — Yesterday and Last 2 Weeks

Now
77 °F

Partly sunny.


Feels Like: 79 °F
Forecast: 70 / 54 °F
Wind: 5 mph from Southwest

Location: Liberec

Current Time: Jul 5, 2020 at 4:04:20 pm

Latest Report: Jul 5, 2020 at 3:00 pm


Visibility: 25 mi

Pressure: 29.88 "Hg

Humidity: 52%

Dew Point: 58 °F

Location of GörlitzLocation

Past Weather in Görlitz — Graph

°F

Görlitz Temperature Yesterday

Maximum temperature yesterday: 77 °F (at 4:00 pm)
Minimum temperature yesterday: 51 °F (at 4:00 am)
Average temperature yesterday: 65 °F

High & Low Weather Summary for the Past Weeks

 TemperatureHumidityPressure
High81 °F (Jun 27, 5:00 pm)100% (Jun 25, 12:00 am)30.28 "Hg (Jun 25, 12:00 am)
Low46 °F (Jun 24, 4:00 am)36% (Jun 30, 6:00 pm)29.71 "Hg (Jul 1, 7:00 pm)
Average64 °F75%30.00 "Hg
* Reported Jun 20 2:00 pm — Jul 5 2:00 pm, Görlitz. Weather by CustomWeather, © 2020

Note: Actual official high and low records may vary slightly from our data, if they occured in-between our weather recording intervals... More about our weather records

Görlitz Weather History for the Previous 24 Hours

Scroll right to see more
 ConditionsComfort  
Time TempWeatherWind HumidityBarometerVisibility
2:00 pm
Sun, Jul 5
77 °FPartly sunny.5 mph53%29.88 "Hg28 mi
1:00 pm78 °FPartly sunny.6 mph51%29.89 "Hg28 mi
12:00 pm76 °FPartly sunny.3 mph53%29.91 "Hg25 mi
11:00 am73 °FPartly sunny.2 mph58%29.94 "Hg25 mi
10:00 am69 °FPartly sunny.3 mph62%29.95 "Hg25 mi
9:00 am70 °FPartly sunny.2 mph59%29.94 "Hg25 mi
8:00 am71 °FScattered clouds.2 mph56%29.95 "Hg25 mi
7:00 am65 °FMild.2 mph62%29.97 "Hg22 mi
6:00 am62 °FCool.1 mph70%29.97 "Hg22 mi
5:00 am60 °FCool.1 mph73%29.98 "Hg22 mi
4:00 am62 °FCool.2 mph69%29.97 "Hg22 mi
3:00 am61 °FCool.2 mph71%29.98 "Hg22 mi
1:00 am62 °FCool.1 mph68%30.00 "Hg22 mi
12:00 am62 °FCool.1 mph68%30.00 "Hg22 mi
11:00 pm
Sat, Jul 4
62 °FCool.2 mph63%29.99 "Hg22 mi
10:00 pm66 °FPassing clouds.3 mph54%29.98 "Hg22 mi
9:00 pm68 °FScattered clouds.3 mph52%29.97 "Hg25 mi
8:00 pm73 °FPassing clouds.3 mph40%29.95 "Hg28 mi
7:00 pm74 °FMild.6 mph40%29.95 "Hg22 mi
6:00 pm76 °FMild.5 mph38%29.95 "Hg22 mi
5:00 pm77 °FPassing clouds.6 mph38%29.95 "Hg31 mi
4:00 pm77 °FScattered clouds.5 mph39%29.96 "Hg31 mi
Weather by CustomWeather, © 2020

See weather overview